Regional Weather Roundup
Issued by NWS Albany, NY

Home | Current Version | Previous Version | Text Only | Print | Product List | Glossary On
Versions: 1 2 3 4 5 6 7 8 9 10 11 12 13 14 15 16 17 18 19 20 21 22 23 24 25 26 27 28 29 30 31 32 33 34 35 36 37 38 39 40 41 42 43 44 45 46 47 48 49 50
679
ASUS41 KALY 241210
RWRALY

NEW YORK STATE HOURLY WEATHER ROUNDUP
NATIONAL WEATHER SERVICE ALBANY NY
800 AM EDT SUN JUL 24 2016

NOTE: "FAIR" INDICATES FEW OR NO CLOUDS BELOW 12,000 FEET WITH NO
SIGNIFICANT WEATHER AND/OR NO OBSTRUCTIONS TO VISIBILITY.

NYZ032-033-038>043-046>054-057>066-NYZ062>081-082-084-241300-
EAST


CITY           SKY/WX    TMP DP  RH WIND       PRES   REMARKS
ALBANY         MOSUNNY   68  62  81 N3        30.01R
GLENS FALLS    CLOUDY    64  62  93 CALM      30.02R FOG
POUGHKEEPSIE   SUNNY     73  62  68 CALM      30.00R
NEWBURGH       SUNNY     70  64  83 CALM      30.02R
MONTGOMERY     MOSUNNY   70  63  78 CALM      30.01R
WHITE PLAINS   SUNNY     75  62  64 NW7       29.99R
ISLIP          MOSUNNY   77  62  59 N8        29.97R
NEW YORK CITY  MOSUNNY   80  61  52 NE3       29.98R
CENTRAL PARK   SUNNY     79  61  53 VRB3      30.01S
$$

NYZ005>009-017-018-044>046-055-056-241300-
CENTRAL


CITY           SKY/WX    TMP DP  RH WIND       PRES   REMARKS
FULTON         CLOUDY    71  63  75 NE3       30.04R
SYRACUSE       CLOUDY    69  63  81 CALM      30.03
ROME           MOSUNNY   65  62  90 CALM      30.05R
ELMIRA         PTSUNNY   64  57  78 CALM      30.05S
BINGHAMTON     MOSUNNY   70  60  70 CALM      30.07R
MONTICELLO     MOSUNNY   68  61  77 CALM      30.07R
$$

NYZ026>034-041>043-087-241300-
NORTH


CITY           SKY/WX    TMP DP  RH WIND       PRES   REMARKS
WATERTOWN      CLOUDY    66  60  81 CALM      30.05R
FORT DRUM      NOT AVBL
MASSENA        CLOUDY    64  57  78 CALM      30.05R
SARANAC LAKE   SUNNY     61  56  83 SW3       30.04R
PLATTSBURGH    SUNNY     66  55  67 CALM      30.02R
$$

NYZ001>004-010>016-019>021-085-241300-
WEST


CITY           SKY/WX    TMP DP  RH WIND       PRES   REMARKS
NIAGARA FALLS  PTSUNNY   72  60  66 E7        30.01S
BUFFALO        PTSUNNY   69  61  75 E5        30.02S
DUNKIRK        MOSUNNY   68  63  84 CALM      30.01S
JAMESTOWN      MOSUNNY   63  59  88 CALM      30.06R
WELLSVILLE     SUNNY     65  59  81 CALM      30.10S
ROCHESTER      PTSUNNY   72  62  71 CALM      30.04S
PENN YAN       CLOUDY    69  61  75 CALM      30.05S
$$

             KEY
       WCI = WIND CHILL INDEX
       VSB = VISIBILITY
       HX  = HEAT INDEX
$$




USA.gov is the U.S. government's official web portal to all federal, state and local government web resources and services.